Home > Weather > Seevetal > Past weeks

Flag for Germany Weather for the Past 2 Weeks in Seevetal, Lower Saxony, Germany

Now
73 °F

Passing clouds.


Feels Like: 77 °F
Forecast: 56 / 71 °F
Wind: 12 mph from Southeast

Location: Hamburg-Finkenwerder

Current Time: May 6, 2016 at 7:55:07 PM

Latest Report: May 6, 2016 at 6:50 PM


Visibility: N/A

Pressure: 29.98 "Hg

Humidity: 33%

Dew Point: 43 °F

Location of SeevetalLocation

Historic Weather in Seevetal — Graph

°F

Seevetal Temperature Yesterday

High & Low Weather Summary for the Past Weeks

 TemperatureHumidityPressure
High73 °F (May 6, 2:20 PM)100% (Apr 25, 5:50 AM)30.39 "Hg (Apr 25, 5:50 AM)
Low30 °F (Apr 25, 5:50 AM)33% (May 2, 5:20 PM)29.36 "Hg (Apr 26, 2:04 PM)
Average48 °F79%29.94 "Hg
* Reported Apr 21 6:20 PM — May 6 6:20 PM, Seevetal, Weather by CustomWeather, © 2016

Note: Actual official high and low records may vary slightly from our data, if they occured in-between our weather recording intervals... More about our weather records

Advertising

Seevetal Weather History for the Previous 24 Hours

Scroll right to see more
 ConditionsComfort  
Time TempWeatherWind HumidityBarometerVisibility
6:20 PM
Fri, May 6
73 °FPassing clouds.13 mph36%29.98 "HgN/A
5:50 PM73 °FPassing clouds.13 mph36%29.98 "HgN/A
5:20 PM73 °FPassing clouds.12 mph36%29.98 "HgN/A
4:50 PM73 °FPassing clouds.12 mph36%29.98 "HgN/A
4:20 PM73 °FPassing clouds.10 mph38%30.01 "HgN/A
3:50 PM73 °FPassing clouds.13 mph38%30.01 "HgN/A
3:20 PM73 °FPassing clouds.12 mph38%30.04 "HgN/A
2:50 PM73 °FPassing clouds.13 mph38%30.04 "HgN/A
2:20 PM73 °FPassing clouds.13 mph38%30.04 "HgN/A
1:50 PM72 °FPassing clouds.14 mph44%30.07 "HgN/A
1:20 PM70 °FPassing clouds.13 mph50%30.07 "HgN/A
12:50 PM70 °FPassing clouds.13 mph50%30.07 "HgN/A
12:20 PM68 °FPassing clouds.12 mph53%30.09 "HgN/A
11:50 AM66 °FPassing clouds.9 mph56%30.09 "HgN/A
11:20 AM64 °FPassing clouds.12 mph60%30.09 "HgN/A
10:50 AM63 °FPassing clouds.9 mph59%30.09 "HgN/A
10:20 AM61 °FPassing clouds.9 mph63%30.12 "HgN/A
9:50 AM61 °FPassing clouds.9 mph59%30.12 "HgN/A
9:20 AM57 °FPassing clouds.8 mph67%30.12 "HgN/A
8:50 AM55 °FPassing clouds.8 mph67%30.12 "HgN/A
8:20 AM55 °FPassing clouds.7 mph67%30.12 "HgN/A
7:50 AM54 °FPassing clouds.7 mph67%30.15 "HgN/A
7:20 AM52 °FPassing clouds.7 mph72%30.15 "HgN/A
6:50 AM52 °FPassing clouds.6 mph72%30.15 "HgN/A
6:20 AM50 °FPassing clouds.5 mph76%30.15 "HgN/A
5:50 AM50 °FPassing clouds.6 mph76%30.15 "HgN/A
Weather by CustomWeather, © 2016

See weather overviewHow to use our weather pages